SPACEBEE-8 (44371 NORAD) Tracking and Keplerian Element Data

This shows tracking and keplerian element data for the satellite.

Feedback or suggestion? Click here.




ElementValue
Catalog44371
NameSPACEBEE-8
Epoch Orbit739
Epoch Day228.55496429
Epoch Year2019
RAAN20.4747
Inclination45.0029
Eccentricity0.0012625
Argument of Perigee179.6229
Mean Anonmoly180.4004
Mean Motion15.3974926
Decay Rate-3.48E-06
L11 44371U 19037G 19228.55496429 -.00000348 00000-0 00000+0 0 9990
L22 44371 45.0029 20.4747 0012625 179.6229 180.4004 15.39749260 7399

Live tracking and technical data element details for SPACEBEE-8 (NORAD 44371). SPACEBEE-8 can be tracked NOW for your location showing map with azimuth and elevation plus other details from your city location.

Track the satellite on the map from your city or location and see movement details for azimuth, elevation, latitude, longitude, range, height, and movement on the map or in text.







IsCatalogInMostPopularTable: catalog: 44371, numindb: 17
Update: records affected: 1



GetName: 44371 SPACEBEE-8

Hit Count: updated at: Wed, 21 Aug 2019 00:55:58 GMT